Lid_Strength_Index
7 7 8 10 10 9 9 9 10 10 10 10 10 11 11 11 11 11 10 5 2 2 2 1 1 1 1 1 1 1 1 1 1 1 1 1 1 1 1 1 1 1 0
6 8 9 9 10 9 10 10 10 10 10 10 10 10 10 11 11 10 10 9 2 2 2 1 1 1 1 1 1 2 2 2 2 2 2 2 1 1 1 1 1 1 1
6 8 9 9 9 10 10 10 10 10 10 9 10 9 9 9 9 10 10 9 7 1 2 2 1 1 1 1 1 2 2 2 2 2 2 2 2 2 2 2 2 2 1
6 7 8 9 9 10 10 10 10 10 10 10 10 9 9 10 9 10 10 9 8 6 4 2 1 1 1 1 1 1 2 2 2 2 2 2 2 2 2 2 2 2 2
6 7 8 8 9 10 10 10 10 10 10 10 9 9 9 9 10 9 10 9 8 7 7 4 2 1 1 1 1 2 2 2 2 2 2 2 2 2 2 2 2 2 2
6 8 8 9 9 9 10 10 10 10 10 10 9 8 9 9 10 10 10 9 9 8 8 8 7 5 2 1 2 2 2 2 2 2 2 2 2 2 2 2 2 2 2
7 8 8 9 9 9 10 10 10 10 10 10 10 10 10 10 11 11 11 10 9 9 9 8 8 8 7 1 2 2 1 1 2 2 2 2 2 2 2 2 2 2 2
7 8 8 9 9 9 10 10 10 10 10 10 11 11 11 11 11 11 11 10 10 10 9 9 9 8 9 7 5 1 1 1 2 2 2 2 2 2 2 2 2 2 2
7 7 8 8 9 9 9 10 10 10 10 10 10 10 12 12 12 11 11 11 10 10 10 9 9 9 9 9 5 3 2 2 2 2 2 2 2 2 2 2 2 2 2
6 7 7 8 8 9 9 9 9 10 10 11 10 9 11 10 11 11 10 11 11 10 10 10 9 9 9 9 7 5 3 2 2 2 2 1 2 2 2 2 2 2 2
6 6 7 7 8 8 9 9 10 10 10 10 10 11 11 11 12 11 11 11 10 10 10 10 10 9 9 9 9 7 3 2 2 3 2 2 2 2 2 2 2 2 2
6 6 6 7 7 8 8 9 9 10 10 10 10 10 10 11 12 12 12 12 11 10 10 10 10 9 9 9 8 6 3 2 2 3 2 2 2 2 1 2 2 2 2
7 6 7 7 7 7 7 8 9 9 10 10 10 9 9 9 10 11 11 11 12 11 10 10 9 9 9 9 8 5 4 2 2 2 2 2 2 2 2 2 2 2 2
6 6 6 6 6 7 7 8 8 8 9 9 10 10 9 8 9 10 10 11 12 12 11 10 9 9 9 8 7 5 6 2 2 2 2 2 2 2 2 2 2 2 2
5 6 6 6 6 7 7 7 8 8 8 8 8 9 8 8 8 8 9 10 10 12 12 10 10 9 9 9 7 7 6 4 2 2 2 2 1 2 2 2 3 3 3
6 6 6 6 6 6 7 7 7 8 8 8 8 9 8 8 8 8 8 9 10 9 11 10 10 10 9 8 8 7 7 5 3 2 2 2 2 1 2 2 3 3 4
6 6 6 6 6 6 6 7 7 7 8 8 8 8 8 8 8 8 8 8 8 9 9 8 9 9 9 9 8 7 7 7 6 2 2 2 2 2 2 2 3 3 4
7 6 6 6 6 6 6 7 7 6 8 8 8 8 8 8 8 8 8 8 8 8 8 8 8 9 9 9 9 9 8 7 7 5 2 2 2 3 2 3 3 3 4
9 8 7 6 6 5 6 6 6 6 7 7 7 7 8 8 8 8 8 8 8 7 8 8 8 9 9 10 10 10 10 8 8 6 4 3 2 2 3 3 3 4 4
10 9 9 8 7 6 5 5 5 6 6 6 6 7 7 7 7 8 8 8 8 8 8 9 8 8 10 10 10 10 10 10 9 8 6 5 4 3 2 3 3 4 5
10 10 9 9 9 8 6 5 6 6 6 6 6 6 6 6 5 5 7 8 8 8 9 9 9 9 11 12 11 10 9 8 10 9 9 8 7 6 5 3 4 4 5
11 11 10 10 10 8 6 5 5 6 5 6 6 6 6 4 4 4 4 4 6 8 9 9 9 9 9 9 9 9 9 12 10 10 9 9 8 8 7 6 4 4 4
11 11 11 10 10 10 5 5 5 6 6 5 5 5 5 5 5 6 4 3 4 4 5 7 9 8 9 8 8 10 10 10 9 11 10 10 9 9 7 7 5 5 5
11 11 11 11 11 9 6 5 5 7 7 6 6 5 5 5 5 6 6 6 6 5 5 5 6 7 7 7 8 8 9 9 10 12 11 10 13 11 10 10 7 6 6
11 11 10 11 11 10 7 5 6 8 7 7 6 6 6 5 4 3 5 7 7 6 5 4 4 4 4 5 6 9 11 11 11 13 12 13 15 14 15 14 12 7 7
11 10 10 10 9 10 8 6 6 8 8 8 8 7 5 5 4 3 5 6 7 6 6 6 6 4 4 4 4 7 7 10 10 15 14 12 15 14 14 15 14 11 8